This demonstration page uses our WeatherBlox Daily Observations layout. Learn more.

36.17497, -115.13722

Hourly Observations for August 17, 2018

Temp ( °F °C ) Dew Point ( °F °C ) Humidity (%) Winds ( mph kmh ) Pressure ( in mb ) Visibility ( mi km ) Precip ( " mm )
12:53 am 00:53 Clear 86 30 58 14.4 39 39 NNE 3 6 29.99 1016 10 16.0934 0 0
1:53 am 01:53 Clear 84 28.9 58 14.4 41 41 N 7 11 29.98 1015 10 16.0934 0 0
2:53 am 02:53 Clear 84 28.9 54 12.2 36 36 NNE 6 9 29.98 1015 10 16.0934 0 0
3:53 am 03:53 Clear 83 28.3 55 12.8 38 38 N 6 9 29.99 1016 10 16.0934 0 0
4:53 am 04:53 Clear 82 27.8 56 13.3 41 41 NNW 3 6 29.99 1016 10 16.0934 0 0
5:53 am 05:53 Clear 82 27.8 58 14.4 44 44 Calm 30.01 1016 10 16.0934 0 0
6:53 am 06:53 Sunny 82 27.8 56 13.3 41 41 NNW 5 7 30.03 1017 10 16.0934 0 0
7:53 am 07:53 Sunny 85 29.4 59 15 42 42 NNE 5 7 30.04 1017 10 16.0934 0 0
8:53 am 08:53 Sunny 87 30.6 59 15 39 39 E 6 9 30.04 1017 10 16.0934 0 0
9:53 am 09:53 Sunny 90 32.2 59 15 35 35 Calm 30.04 1017 10 16.0934 0 0
10:53 am 10:53 Sunny 93 33.9 56 13.3 29 29 SE 7 11 30.04 1017 10 16.0934 0 0
11:53 am 11:53 Sunny 95 35 56 13.3 27 27 SSW 5 7 30.02 1017 10 16.0934 0 0
12:53 pm 12:53 Sunny 97 36.1 55 12.8 24 24 SSE 6 9 29.99 1016 10 16.0934 0 0
1:53 pm 13:53 Sunny 100 37.8 54 12.2 21 21 VRB 3 6 29.97 1015 10 16.0934 0 0
2:53 pm 14:53 Sunny 101 38.3 54 12.2 21 21 ENE 5 7 29.94 1014 10 16.0934 0 0
3:53 pm 15:53 Sunny 101 38.3 53 11.7 20 20 SE 6 9 29.92 1013 10 16.0934 0 0
4:53 pm 16:53 Sunny 101 38.3 52 11.1 19 19 S 7 11 29.9 1013 10 16.0934 0 0
5:53 pm 17:53 Sunny 101 38.3 53 11.7 20 20 SSE 7 11 29.89 1012 10 16.0934 0 0
6:21 pm 18:21 Sunny with Nearby Thunderstorms 101 38.3 53 11.7 20 20 SW 5 7 29.74 1007 10 16.0934 0 0
6:36 pm 18:36 Sunny 100 37.8 54 12.2 21 21 S 6 9 29.74 1007 10 16.0934 0 0
6:53 pm 18:53 Sunny 100 37.8 53 11.7 21 21 S 8 13 29.88 1012 10 16.0934 0 0
7:53 pm 19:53 Clear 99 37.2 53 11.7 21 21 SSE 6 9 29.89 1012 10 16.0934 0 0
8:53 pm 20:53 Clear 97 36.1 57 13.9 26 26 SE 9 15 29.9 1013 10 16.0934 0 0
9:53 pm 21:53 Clear 96 35.6 55 12.8 25 25 NE 3 6 29.92 1013 10 16.0934 0 0
10:53 pm 22:53 Clear 95 35 54 12.2 25 25 S 5 7 29.92 1013 10 16.0934 0 0
11:53 pm 23:53 Clear 93 33.9 54 12.2 27 27 WSW 3 6 29.93 1013 10 16.0934 0 0

Powered by AerisWeather